Location: Oriwa
(40.7500°S, 175.3333°E)
Time: 13:18:54
(UTC+00:00)

Meteor 1-23 Rocket - Pass Details

Date: 03 February 2023
Orbit: 834 x 890 km, 81.3° (Epoch: 31 March)

Event Time Altitude Azimuth Distance (km) Brightness Sun altitude
Exits shadow 15:00:52 46° 280° (W) 1,133 4.5 -23.2°
Maximum altitude 15:01:36 48° 256° (WSW) 1,094 4.5 -23.1°
Drops below altitude 10° 15:07:01 10° 182° (S) 2,482 7.3 -22.5°
Sets 15:09:33 0° 176° (S) 3,422 8.2 -22.2°
